Flag for Singapore Weather past 2 weeks in Singapore, Singapore

Now
88 °F

Partly sunny.


Feels Like: 98 °F
Forecast: 77 / 89 °F
Wind: 5 mph from Southeast

Location: Singapore / Paya Lebar

Current Time: Oct 2, 2014 at 11:32:02 AM

Latest Report: Oct 2, 2014 at 11:00 AM


Visibility: N/A

Pressure: 29.89 "Hg

Humidity: 66%

Dew point: 75 °F

Location of SingaporeLocation

Historic Weather in Singapore — Graph

°F

Singapore temperature yesterday

Maximum temperature yesterday: 93 °F (at 3:00 PM)
Minimum temperature yesterday: 82 °F (at 5:00 AM)
Average temperature yesterday: 87 °F

Past Weeks' High & Low Weather Summary

 TemperatureHumidityPressure
High93 °F (Sep 19, 3:00 PM)94% (Sep 21, 5:00 AM)29.95 "Hg (Sep 21, 5:00 AM)
Low75 °F (Sep 25, 9:00 AM)38% (Sep 22, 4:00 PM)29.74 "Hg (Sep 17, 3:00 PM)
Average86 °F71%29.83 "Hg
* Reported Sep 17 10:00 AM — Oct 2 10:00 AM, Singapore, Weather by CustomWeather, © 2014

Note: Actual official high and low records may vary slightly from our data, if they occured in-between our weather recording intervals... More about our weather records

Advertising

Singapore weather history for previous 24 hours

 ConditionsComfort  
Time TempWeatherWind HumidityBarometerVisibility
10:00 AM
Oct 2
86 °FPartly sunny.6 mph70%29.89 "Hg6 mi
9:00 AM84 °FBroken clouds.6 mph79%29.89 "Hg6 mi
8:00 AM82 °FPartly sunny.3 mph79%29.86 "Hg6 mi
7:00 AM82 °FPartly sunny.3 mph79%29.83 "Hg4 mi
6:00 AM82 °FPassing clouds.3 mph79%29.80 "HgN/A
5:00 AM82 °FPassing clouds.3 mph79%29.80 "Hg6 mi
11:00 PM
Oct 1
84 °FPassing clouds.6 mph79%29.86 "HgN/A
10:00 PM86 °FPassing clouds.3 mph75%29.86 "HgN/A
9:00 PM86 °FPassing clouds.5 mph75%29.83 "HgN/A
8:00 PM86 °FPassing clouds.5 mph75%29.80 "HgN/A
7:00 PM88 °FPassing clouds.5 mph66%29.77 "HgN/A
6:00 PM88 °FPartly sunny.6 mph66%29.74 "HgN/A
5:00 PM90 °FPartly sunny.10 mph63%29.74 "HgN/A
4:00 PM91 °FPartly sunny.7 mph59%29.74 "HgN/A
3:00 PM93 °FPartly sunny.8 mph49%29.74 "HgN/A
2:00 PM91 °FPartly sunny.6 mph52%29.77 "HgN/A
1:00 PM91 °FPartly sunny.7 mph52%29.80 "HgN/A
12:00 PM91 °FPartly sunny.7 mph52%29.86 "HgN/A
11:00 AM88 °FPartly sunny.8 mph62%29.86 "HgN/A
Weather by CustomWeather, © 2014

See weather overviewHow to use our weather pages